SCP
0 0 0 0 0 0 0 0 0 0 0 0 0 0 0 0 0 0 0 0 0 0 0 0 0 0 0 0 0 0 0 0 0 0 0 0 0 0 0 0 0 0 0 0
0 0 0 0 0 0 0 0 0 0 0 0 0 0 0 0 0 0 0 0 0 0 0 0 0 0 0 0 0 0 0 0 0 0 0 0 0 0 0 0 0 0 0 0
0 0 0 0 0 0 0 0 0 0 0 0 0 0 0 0 0 0 0 0 0 0 0 0 0 0 0 0 0 0 0 0 0 0 0 0 0 0 0 0 0 0 0 0
0 0 0 0 0 0 0 0 0 0 0 0 0 0 0 0 0 0 0 0 0 0 0 0 0 0 0 0 0 0 0 0 0 0 0 0 0 0 0 0 0 0 0 0
0 0 0 0 0 0 0 0 0 0 0 0 0 0 0 0 0 0 0 0 0 0 0 0 0 0 0 0 0 0 0 0 0 0 0 0 0 0 0 0 0 0 0 0
0 0 0 0 0 0 0 0 0 0 0 0 0 0 0 0 0 0 0 0 0 0 0 0 0 0 0 0 0 0 0 0 0 0 0 0 0 0 0 0 0 0 0 0
0 0 0 0 0 0 0 0 0 0 0 0 0 0 0 0 0 0 0 0 0 0 0 0 0 0 0 0 0 0 0 0 0 0 0 0 0 0 0 0 0 0 0 0
0 0 0 0 0 0 0 0 0 0 0 0 0 0 0 0 0 0 0 0 0 0 0 0 0 0 0 0 0 0 0 0 0 0 0 0 0 0 0 0 0 0 0 0
0 0 0 0 0 0 0 0 0 0 0 0 0 0 0 0 0 0 0 0 0 0 0 0 0 0 0 0 0 0 0 0 0 0 0 0 0 0 0 0 0 0 0 0
0 0 0 0 0 0 0 0 0 0 0 0 0 0 0 0 0 0 0 0 0 0 0 0 0 0 0 0 0 0 0 0 0 0 0 0 0 0 0 0 0 0 0 0
0 0 0 0 0 0 0 0 0 0 0 0 0 0 0 0 0 0 0 0 0 0 0 0 0 0 0 0 0 0 0 0 0 0 0 0 0 0 0 0 0 0 0 0
0 0 0 0 0 0 0 0 0 0 0 0 0 0 0 0 0 0 0 0 0 0 0 0 0 0 0 0 0 0 0 0 0 0 0 0 0 0 0 0 0 0 0 0
0 0 0 0 0 0 0 0 0 0 0 0 0 0 0 0 0 0 0 0 0 0 0 0 0 0 0 0 0 0 0 0 0 0 0 0 0 0 0 0 0 0 0 0
0 0 0 0 0 0 0 0 0 0 0 0 0 0 0 0 0 0 0 0 0 0 0 0 0 0 0 0 0 0 0 0 0 0 0 0 0 0 0 0 0 0 0 0
0 0 0 0 0 0 0 0 0 0 0 0 0 0 0 0 0 0 0 0 0 0 0 0 0 0 0 0 0 0 0 0 0 0 0 0 0 0 0 0 0 0 0 0
0 0 0 0 0 0 0 0 0 0 0 0 0 0 0 0 0 0 0 0 0 0 0 0 0 0 0 0 0 0 0 0 0 0 0 0 0 0 0 0 0 0 0 0
0 0 0 0 0 0 0 0 0 0 0 0 0 0 0 0 0 0 0 0 0 0 0 0 0 0 0 0 0 0 0 0 0 0 0 0 0 0 0 0 0 0 0 0
0 0 0 0 0 0 0 0 0 0 0 0 0 0 0 0 0 0 0 0 0 0 0 0 0 0 0 0 0 0 0 0 0 0 0 0 0 0 0 0 0 0 0 0
0 0 0 0 0 0 0 0 0 0 0 0 0 0 0 0 0 0 0 0 0 0 0 0 0 0 0 0 0 0 0 0 0 0 0 0 0 0 0 0 0 0 0 0
0 0 0 0 0 0 0 0 0 0 0 0 0 0 0 0 0 0 0 0 0 0 0 0 0 0 0 0 0 0 0 0 0 0 0 0 0 0 0 0 0 0 0 0
0 0 0 0 0 0 0 0 0 0 0 0 0 0 0 0 0 0 0 0 0 0 0 0 0 0 0 0 0 0 0 0 0 0 0 0 0 0 0 0 0 0 0 0
0 0 0 0 0 0 0 0 0 0 0 0 0 0 0 0 0 0 0 0 0 0 0 0 0 0 0 0 0 0 0 0 0 0 0 0 0 0 0 0 0 0 0 0
0 0 0 0 0 0 0 0 0 0 0 0 0 0 0 0 0 0 0 0 0 0 0 0 0 0 0 0 0 0 0 0 0 0 0 0 0 0 0 0 0 0 0 -0
0 0 0 0 0 0 0 0 0 0 0 0 0 0 0 0 0 0 0 0 0 0 0 0 0 0 0 0 0 0 0 0 0 0 0 0 0 -0 -0 0 0 0 0 -0
0 0 0 0 0 0 0 0 0 0 0 0 0 0 0 0 0 0 0 0 0 0 0 0 0 0 0 0 0 0 0 0 0 0 0 0 0 -0 -0 -0 -0 0 0 0
0 0 0 0 0 0 0 0 0 0 0 0 0 0 0 0 0 0 0 0 0 0 0 0 0 0 0 0 0 0 0 0 0 0 0 0 0 0 0 -0 0 0 0 0
0 0 0 0 0 0 0 0 0 0 0 0 0 0 0 0 0 0 0 0 0 0 0 0 0 0 0 0 0 0 0 0 0 0 0 0 0 0 0 0 0 0 0 0
Wind_Speed
2 0 2 3 3 4 3 5 6 5 6 5 6 7 8 7 7 7 7 6 6 5 3 3 3 3 2 2 2 3 4 3 2 1 2 2 2 3 3 3 3 3 3 3
2 3 5 5 5 5 4 4 6 7 3 3 5 6 6 6 8 8 6 6 5 4 3 3 2 2 3 2 2 3 3 2 2 2 2 3 2 3 3 3 3 3 3 3
0 1 4 4 3 3 4 3 6 4 4 6 6 6 6 6 6 7 6 6 5 4 3 2 2 2 3 3 2 3 3 3 2 3 3 3 3 3 3 3 3 3 3 3
2 4 2 2 1 6 8 5 4 6 7 8 7 5 4 4 6 6 5 6 5 4 3 2 1 2 2 3 3 3 3 3 2 3 2 2 2 2 2 1 2 2 2 2
3 2 1 1 0 3 5 3 3 8 8 8 8 6 3 2 4 5 5 5 5 4 3 3 2 2 3 3 3 3 3 2 2 2 2 2 2 1 1 1 1 1 1 2
4 3 2 3 1 4 7 2 1 7 8 8 6 3 2 2 4 5 4 4 4 3 3 3 2 3 4 3 3 3 2 2 2 2 2 1 1 0 0 1 1 1 2 2
3 2 2 2 1 2 3 5 4 6 7 7 4 5 5 5 5 5 5 4 4 4 3 3 3 4 4 3 2 2 2 3 2 1 1 1 0 0 1 1 1 2 2 2
3 3 4 2 2 3 5 4 6 6 6 6 6 7 8 7 6 6 5 4 4 4 3 2 3 4 4 2 1 2 3 3 1 1 0 1 1 1 1 1 1 1 2 3
4 5 4 1 4 4 6 7 5 6 7 9 8 7 7 6 6 5 5 4 3 4 3 2 2 4 3 2 2 3 3 2 1 1 1 1 1 1 1 1 1 0 0 1
4 2 3 4 5 5 7 7 7 8 9 9 8 8 7 6 5 5 4 4 3 4 4 2 2 3 3 2 3 3 2 1 1 1 2 2 2 1 1 1 1 0 1 0
4 4 5 4 5 7 8 9 9 8 8 9 10 8 7 6 5 5 4 3 4 4 4 3 3 2 2 3 4 3 2 1 1 1 1 1 1 1 0 1 2 3 2 2
6 8 6 6 6 8 9 8 9 9 7 7 8 8 6 6 5 5 4 4 4 4 4 4 3 3 2 3 4 3 2 1 1 1 1 0 1 1 2 1 2 2 3 3
7 7 7 8 7 7 8 8 8 9 9 8 7 7 6 5 5 5 5 5 5 4 4 4 3 3 3 3 3 3 2 2 1 1 1 1 1 1 1 3 3 3 3 3
10 10 8 7 7 7 9 8 8 8 8 8 7 6 6 5 5 5 5 5 5 5 4 4 4 4 4 3 3 3 2 2 2 2 2 2 2 2 2 2 2 3 4 5
8 8 8 8 8 8 8 8 9 7 7 6 6 7 7 6 6 6 5 5 5 4 4 4 4 4 4 4 3 3 2 2 2 2 2 2 2 3 3 3 3 3 2 3
8 9 10 10 9 8 8 9 8 8 7 7 7 7 7 7 6 5 5 5 5 5 5 5 4 4 4 4 4 3 2 4 3 2 2 2 2 3 3 3 3 3 3 4
10 8 8 9 8 8 8 8 9 9 8 8 8 7 7 6 5 5 5 5 5 5 5 5 5 5 4 5 4 3 3 3 4 3 3 3 3 3 3 3 3 4 4 5
10 10 10 10 9 8 8 8 9 9 8 8 8 7 7 7 6 6 5 5 4 3 4 5 5 5 4 4 4 3 3 3 3 3 3 3 3 3 3 3 4 4 4 4
9 9 9 9 8 8 8 8 8 8 8 8 8 8 7 7 7 6 5 5 5 4 5 5 7 5 4 5 4 3 3 3 3 3 3 4 4 3 3 4 4 4 5 4
9 9 9 8 8 8 8 8 8 7 7 8 8 7 6 6 6 6 6 6 6 6 6 6 6 5 5 5 5 3 3 4 4 4 4 4 4 4 4 4 5 5 5 5
9 9 9 8 8 8 8 8 8 7 7 8 8 8 7 7 6 6 5 5 6 6 6 8 6 5 5 5 6 4 4 4 4 4 4 4 4 4 4 5 5 5 5 5
8 8 8 8 8 7 6 7 7 7 7 7 7 7 6 6 6 5 6 6 6 7 6 5 5 7 8 7 4 4 5 5 5 4 4 5 5 5 5 5 5 5 5 5
7 7 7 8 8 7 6 6 6 7 7 7 7 7 7 6 6 5 5 6 5 8 6 5 8 11 12 7 5 5 6 6 5 5 5 6 6 6 6 6 6 6 5 6
6 7 7 6 6 6 5 5 5 5 6 6 7 7 7 5 4 5 6 7 9 10 7 8 12 14 12 6 5 6 6 6 6 6 6 6 6 6 6 6 6 6 7 7
7 7 6 7 6 5 5 5 4 4 4 4 5 6 6 6 6 6 5 6 9 9 6 8 12 13 8 5 6 7 7 7 7 6 6 6 6 6 7 6 7 7 6 6
6 5 5 6 5 4 4 4 3 3 4 4 3 4 4 4 5 4 4 6 8 8 7 5 6 8 6 7 7 8 7 7 8 7 7 7 7 7 7 7 9 7 6 6
5 4 3 3 3 3 4 4 4 4 5 5 5 5 4 4 4 4 5 4 5 5 5 5 5 6 7 7 8 8 7 7 7 7 7 7 7 7 7 8 7 6 6 6
Wind_Direction
127 62 63 56 51 70 100 146 155 169 162 180 164 148 146 145 135 127 125 125 124 124 120 116 114 120 121 116 120 119 113 108 112 102 78 63 52 44 44 52 62 60 55 36
52 45 59 51 40 67 77 98 119 120 124 153 129 121 128 140 142 140 142 141 133 128 125 126 129 135 128 119 120 123 122 113 102 87 74 64 59 55 53 47 46 50 49 39
321 344 54 23 354 80 82 88 131 150 167 136 118 128 145 151 146 147 149 145 142 140 143 154 157 152 152 145 126 119 114 106 97 91 80 70 70 63 54 46 49 48 39 41
97 44 78 262 15 101 95 68 86 109 125 133 133 128 117 133 143 145 147 148 148 147 146 147 138 132 134 127 124 123 116 110 105 96 89 73 69 66 54 52 55 46 33 22
102 98 154 255 311 138 113 71 91 120 127 126 123 91 63 97 131 149 150 150 154 154 151 146 146 143 125 115 119 120 123 126 118 110 102 85 73 64 58 69 49 37 26 21
117 125 197 242 246 128 104 88 133 133 142 145 132 123 199 161 127 124 122 129 136 131 124 133 143 129 118 118 121 125 133 131 117 111 114 109 104 92 51 84 74 45 34 16
122 141 238 275 271 95 137 207 171 143 147 150 155 167 156 133 116 117 117 123 125 120 125 140 133 116 112 116 134 152 133 112 102 99 122 143 111 82 108 84 55 31 21 2
128 148 231 292 77 139 181 149 129 126 131 125 120 118 122 123 122 120 116 119 124 123 127 135 132 123 122 138 170 135 112 101 98 81 69 96 82 26 61 99 71 23 5 351
155 191 223 124 124 135 131 125 127 127 131 129 125 128 129 128 131 130 132 135 132 132 127 129 138 135 139 175 148 121 104 99 93 62 38 59 79 37 27 61 88 55 44 333
94 121 120 103 106 109 117 123 128 131 134 132 131 134 133 136 138 137 139 143 139 133 133 145 154 142 159 163 136 122 115 108 105 87 48 30 34 56 88 77 111 122 150 219
106 140 106 102 123 121 113 114 117 126 132 135 134 137 141 145 149 150 146 146 141 144 155 169 168 164 164 147 131 123 122 118 111 108 100 60 40 36 152 228 206 187 201 193
181 187 154 167 153 131 125 129 133 130 126 133 138 143 143 149 155 153 152 146 146 157 164 173 172 172 180 164 144 136 134 136 145 156 164 137 100 359 342 271 280 242 220 203
153 149 137 142 138 130 133 137 137 136 138 137 137 139 140 145 151 150 150 152 160 167 168 170 167 171 184 173 150 147 165 185 192 196 200 203 200 202 292 318 307 292 276 250
122 116 115 129 135 129 130 131 131 131 135 138 140 139 138 138 143 150 163 173 170 165 165 169 166 181 194 174 162 169 183 209 213 214 213 219 227 232 230 236 273 290 285 263
125 127 137 135 127 127 128 128 129 135 139 141 143 144 145 148 158 168 175 170 161 166 174 173 175 197 199 177 170 185 198 217 227 233 232 231 239 242 238 237 240 253 274 281
127 122 128 130 136 139 139 140 145 153 151 150 154 158 159 161 166 170 171 163 160 176 186 185 196 210 200 187 185 197 220 232 230 234 251 256 255 250 246 239 236 239 244 247
132 141 145 148 152 153 157 159 161 162 160 158 166 166 159 154 154 165 178 180 177 184 189 190 203 209 197 189 189 200 216 242 244 244 244 244 245 245 241 231 228 232 242 242
153 160 160 159 160 159 161 160 158 160 165 170 166 161 161 164 174 184 189 182 175 190 206 202 199 195 194 193 192 195 207 230 238 245 253 254 252 246 238 235 235 239 248 255
146 150 153 157 159 156 155 156 159 163 165 160 160 167 175 180 183 186 182 176 184 206 227 215 203 198 207 214 206 200 210 229 246 258 257 261 264 258 246 243 243 242 239 238
150 153 154 155 152 149 153 158 158 161 165 161 161 166 176 186 186 185 183 194 209 211 211 206 204 209 215 222 216 210 219 231 241 252 254 251 254 259 255 251 249 243 238 236
150 150 149 149 148 148 153 155 158 165 168 165 167 177 188 194 190 181 181 215 237 220 207 204 202 209 215 218 219 221 228 235 239 245 251 251 253 257 258 257 254 246 240 239
149 149 149 149 147 152 160 160 161 165 167 172 177 180 181 190 195 195 203 213 223 209 199 202 208 214 216 216 215 222 233 240 242 244 244 244 243 248 253 253 252 249 245 244
144 144 147 151 155 161 163 164 168 168 172 178 181 183 188 194 191 190 221 229 215 208 203 210 214 216 218 218 220 226 235 241 244 245 245 245 243 243 246 250 250 248 246 246
142 145 149 150 142 144 162 182 178 178 180 185 192 191 188 192 211 216 215 215 210 209 212 218 218 221 220 220 224 230 236 241 246 248 248 246 245 244 244 247 251 251 249 248
144 144 144 143 148 166 181 181 177 187 191 200 208 205 198 194 202 216 211 211 211 208 217 221 221 225 221 221 226 231 235 240 244 245 245 246 247 246 246 246 246 247 246 246
148 154 162 170 174 180 179 175 182 196 191 199 218 221 217 213 211 208 208 211 208 205 210 217 217 217 218 225 231 235 238 245 251 249 246 247 248 247 246 246 247 245 243 242
149 154 158 171 191 188 182 181 187 199 197 196 210 222 219 216 212 213 213 211 208 211 216 218 217 215 219 227 234 238 239 241 244 245 246 247 246 246 246 247 247 246 244 245